Home   Weather   Mombasa   Past weeks

Flag for Kenya Past Weather in Mombasa, Kenya — Yesterday and Last 2 Weeks

Now
81 °F

Passing clouds.


Feels Like: 86 °F
Forecast: 81 / 89 °F
Wind: 7 mph from South

Location: Mombasa Airport

Current Time: Apr 24, 2017 at 4:22:50 am

Latest Report: Apr 24, 2017 at 3:00 am


Visibility: N/A

Pressure: 29.89 "Hg

Humidity: 84%

Dew Point: 75 °F

Location of MombasaLocation

Past Weather in Mombasa — Graph

°F

Mombasa Temperature Yesterday

Maximum temperature yesterday: 90 °F (at 1:00 pm)
Minimum temperature yesterday: 77 °F (at 5:00 am)
Average temperature yesterday: 83 °F

High & Low Weather Summary for the Past Weeks

 TemperatureHumidityPressure
High93 °F (Apr 11, 12:00 pm)100% (Apr 20, 6:00 am)29.98 "Hg (Apr 20, 6:00 am)
Low75 °F (Apr 20, 6:00 am)28% (Apr 15, 3:00 pm)29.77 "Hg (Apr 17, 4:00 pm)
Average84 °F75%29.87 "Hg
* Reported Apr 9 3:00 am — Apr 24 3:00 am, Mombasa, Weather by CustomWeather, © 2017

Note: Actual official high and low records may vary slightly from our data, if they occured in-between our weather recording intervals... More about our weather records

Advertising

Mombasa Weather History for the Previous 24 Hours

Scroll right to see more
 ConditionsComfort  
Time TempWeatherWind HumidityBarometerVisibility
3:00 am
Mon, Apr 24
81 °FPassing clouds.7 mph84%29.89 "HgN/A
2:00 am81 °FPassing clouds.8 mph84%29.89 "HgN/A
12:00 am82 °FPassing clouds.7 mph79%29.92 "HgN/A
11:00 pm
Sun, Apr 23
82 °FPassing clouds.8 mph79%29.92 "HgN/A
10:00 pm82 °FPassing clouds.8 mph79%29.92 "HgN/A
9:00 pm82 °FPassing clouds.8 mph79%29.89 "HgN/A
8:00 pm82 °FPassing clouds.7 mph79%29.89 "HgN/A
7:00 pm82 °FPassing clouds.9 mph79%29.86 "HgN/A
6:00 pm84 °FScattered clouds.10 mph74%29.86 "HgN/A
5:00 pm86 °FScattered clouds.12 mph70%29.86 "HgN/A
4:00 pm88 °FPassing clouds.10 mph62%29.83 "HgN/A
3:00 pm90 °FScattered clouds.12 mph55%29.86 "HgN/A
2:00 pm90 °FPassing clouds.13 mph55%29.86 "HgN/A
1:00 pm90 °FPassing clouds.12 mph55%29.89 "HgN/A
11:00 am86 °FScattered clouds.7 mph66%29.95 "HgN/A
10:00 am86 °FScattered clouds.9 mph66%29.98 "HgN/A
9:00 am84 °FPassing clouds.10 mph74%29.98 "HgN/A
8:00 am81 °FScattered clouds.7 mph79%29.95 "HgN/A
7:00 am77 °FScattered clouds.6 mph89%29.92 "HgN/A
6:00 am77 °FPassing clouds.6 mph89%29.92 "HgN/A
5:00 am77 °FPassing clouds.10 mph89%29.89 "HgN/A
Weather by CustomWeather, © 2017

See weather overviewHow to use our weather pages